Location: Libas
(9.8833°N, 125.9833°E)
Time: 20:49:37
(UTC+00:00)

Nadezhda 4 Rocket - Pass Details

Date: 27 October 2020
Orbit: 950 x 991 km, 82.9° (Epoch: 25 November)

Event Time Altitude Azimuth Distance (km) Brightness Sun altitude
Rises 19:48:33 0° 191° (S) 3,624 7.0 -24.3°
Reaches altitude 10° 19:51:05 10° 194° (SSW) 2,674 6.3 -23.7°
Maximum altitude 19:57:06 62° 274° (W) 1,058 3.8 -22.2°
Drops below altitude 10° 20:03:07 10° 354° (N) 2,668 6.1 -20.8°
Sets 20:05:38 0° 358° (N) 3,614 6.9 -20.1°
